Flag for U.S.A. Weather past 2 weeks in Augusta, Maine, U.S.A.

Now
35 °F

Passing clouds.


Feels Like: 28 °F
Forecast: 30 / 36 °F
Wind: 9 mph from Northwest

Location: Augusta State Airport

Current Time: Dec 18, 2014 at 3:30:01 PM

Latest Report: Dec 18, 2014 at 2:53 PM


Visibility: 10 mi

Pressure: 29.68 "Hg

Humidity: 72%

Dew point: 27 °F

Location of AugustaLocation

Historic Weather in Augusta — Graph

°F

Augusta temperature yesterday

Maximum temperature yesterday: 37 °F (at 12:53 PM)
Minimum temperature yesterday: 32 °F (at 12:03 AM)
Average temperature yesterday: 34 °F

Past Weeks' High & Low Weather Summary

 TemperatureHumidityPressure
High38 °F (Dec 11, 9:53 AM)100% (Dec 3, 3:53 PM)30.86 "Hg (Dec 3, 3:53 PM)
Low3 °F (Dec 8, 6:53 AM)29% (Dec 4, 12:53 PM)29.46 "Hg (Dec 10, 6:53 PM)
Average28 °F82%30.06 "Hg
* Reported Dec 3 1:53 PM — Dec 18 1:53 PM, Augusta, Weather by CustomWeather, © 2014

Note: Actual official high and low records may vary slightly from our data, if they occured in-between our weather recording intervals... More about our weather records

Advertising

Augusta weather history for previous 24 hours

 ConditionsComfort  
Time TempWeatherWind HumidityBarometerVisibility
1:53 PM
Dec 18
35 °FMostly cloudy.10 mph78%29.67 "Hg10 mi
12:53 PM35 °FMore clouds than sun.8 mph85%29.66 "Hg10 mi
11:53 AM35 °FLight rain. Mostly cloudy.7 mph92%29.67 "Hg10 mi
10:53 AM34 °FLight snow. Fog.8 mph92%29.67 "Hg6 mi
9:53 AM33 °FLight snow. Fog.8 mph96%29.68 "Hg3 mi
8:53 AM33 °FLight snow. Mostly cloudy.7 mph96%29.66 "Hg7 mi
8:00 AM33 °FLight snow. Fog.8 mph96%29.64 "Hg4 mi
7:03 AM32 °FLight snow. Ice fog.7 mph96%29.63 "Hg6 mi
6:53 AM32 °FLight snow. Ice fog.7 mph96%29.63 "Hg4 mi
5:53 AM32 °FLight snow. Ice fog.5 mph96%29.62 "Hg1 mi
5:04 AM32 °FLight snow. Ice fog.3 mph96%29.60 "Hg2 mi
4:53 AM32 °FLight snow. Ice fog.3 mph96%29.61 "Hg4 mi
3:53 AM33 °FLight snow. Fog.3 mph96%29.62 "Hg5 mi
2:53 AM33 °FFog.5 mph100%29.63 "Hg6 mi
2:02 AM34 °FMostly cloudy.6 mph97%29.61 "Hg10 mi
1:53 AM34 °FLight rain. Mostly cloudy.7 mph92%29.62 "Hg8 mi
12:53 AM33 °FMostly cloudy.8 mph96%29.63 "Hg10 mi
11:53 PM
Dec 17
33 °FLow clouds.10 mph96%29.64 "Hg8 mi
11:04 PM33 °FFog.9 mph96%29.63 "Hg4 mi
9:53 PM33 °FLow clouds.8 mph96%29.66 "Hg10 mi
8:53 PM34 °FMostly cloudy.9 mph92%29.67 "Hg10 mi
7:53 PM34 °FMostly cloudy.10 mph92%29.69 "Hg10 mi
6:53 PM34 °FLight rain. Fog.13 mph97%29.70 "Hg6 mi
5:53 PM34 °FLight rain. Fog.14 mph97%29.71 "Hg4 mi
4:53 PM35 °FLight rain. Fog.14 mph96%29.70 "Hg3 mi
3:53 PM35 °FLight rain. Fog.13 mph96%29.70 "Hg1 mi
Weather by CustomWeather, © 2014

See weather overviewHow to use our weather pages